FW8095 Weather Reports


Display with metric or nautical units.
time (UTC)temp
F
wind
direction
speed
MPH
gust
MPH
rain 1hr
in
rain 24hr
in
rain mn
in
humidity
%
barometer
mb
20260906084552 78 0 0.0 0.0 0.00 0.00 0.00 91 1012.7
20260906083042 78 0 0.0 0.0 0.00 0.00 0.00 91 1013.0
20260906081540 78 0 0.0 1.0 0.00 0.00 0.00 92 1013.2
20260906080051 78 0 0.0 0.0 0.00 0.00 0.00 92 1013.3
20260906074548 77 0 0.0 0.0 0.00 0.00 0.00 91 1012.9
20260906073040 77 0 0.0 0.0 0.00 0.00 0.00 91 1012.8
20260906071540 77 0 0.0 0.0 0.00 0.00 0.00 90 1012.8
20260906070045 78 0 0.0 0.0 0.00 0.00 0.00 90 1012.9
20260906064539 78 0 0.0 0.0 0.00 0.00 0.00 89 1013.1
20260906063049 78 0 0.0 0.0 0.00 0.00 0.00 89 1013.3
20260906061547 78 0 0.0 0.0 0.00 0.00 0.00 89 1013.6
20260906060056 78 0 0.0 0.0 0.00 0.00 0.00 89 1013.6
20260906054541 78 0 0.0 0.0 0.00 0.00 0.00 88 1013.6
20260906053045 78 0 0.0 0.0 0.00 0.00 0.00 88 1013.7
20260906051755 78 0 0.0 0.0 0.00 0.00 0.00 88 1013.7
20260906050432 78 0 0.0 0.0 0.00 0.00 0.00 88 1013.9
20260906044541 78 0 0.0 0.0 0.00 0.00 0.00 88 1013.5
20260906043047 79 0 0.0 0.0 0.00 0.00 0.00 87 1013.5
20260906041548 79 0 0.0 0.0 0.00 0.00 0.00 86 1013.6
20260906040047 79 0 0.0 0.0 0.00 0.00 0.00 86 1013.6
20260906034546 79 0 0.0 0.0 0.00 0.00 0.00 85 1013.6
20260906033045 80 0 0.0 0.0 0.00 0.00 0.00 85 1013.7
20260906031544 80 0 0.0 0.0 0.00 0.00 0.00 84 1013.5
20260906030040 81 0 0.0 0.0 0.00 0.00 0.00 83 1013.6
20260906024544 81 0 0.0 0.0 0.00 0.00 0.00 83 1013.5
20260906023048 81 0 0.0 0.0 0.00 0.00 0.00 83 1013.5
20260906021553 81 0 0.0 0.0 0.00 0.00 0.00 83 1013.4
20260906020042 82 0 0.0 0.0 0.00 0.00 0.00 82 1013.4
20260906014548 82 0 0.0 0.0 0.00 0.00 0.00 81 1013.0
20260906013040 82 0 0.0 0.0 0.00 0.00 0.00 81 1012.8
20260906011602 83 0 0.0 0.0 0.00 0.00 0.00 80 1012.4
20260906010046 83 0 0.0 1.0 0.00 0.00 0.00 80 1012.2
20260906004545 84 0 0.0 0.0 0.00 0.00 0.00 79 1012.3
20260906003041 84 0 0.0 1.0 0.00 0.00 0.00 78 1012.1
20260906001551 85 270 0.0 1.0 0.00 0.00 0.00 77 1012.3
20260905234541 86 0 0.0 2.0 0.00 0.00 0.00 75 1012.4
20260905233104 87 0 0.0 2.0 0.00 0.00 0.00 75 1012.3
20260905231553 88 0 0.0 1.0 0.00 0.00 0.00 74 1012.3
20260905230047 88 0 0.0 3.0 0.00 0.00 0.00 73 1012.4
20260905224605 90 275 0.0 4.0 0.00 0.00 0.00 71 1012.2
20260905223044 91 0 0.0 2.0 0.00 0.00 0.00 68 1012.0
20260905220050 93 309 1.0 5.0 0.00 0.00 0.00 65 1011.8
20260905214549 94 304 0.0 3.0 0.00 0.00 0.00 63 1011.7
20260905213048 95 309 1.0 5.0 0.00 0.00 0.00 62 1011.7
20260905211547 95 219 1.0 4.0 0.00 0.00 0.00 58 1011.9
20260905210042 95 0 0.0 3.0 0.00 0.00 0.00 57 1011.8
20260905204539 96 0 0.0 3.0 0.00 0.00 0.00 57 1012.0
20260905203047 96 0 1.0 5.0 0.00 0.00 0.00 57 1012.1
20260905201546 97 0 1.0 5.0 0.00 0.00 0.00 57 1012.2
20260905200049 97 67 0.0 4.0 0.00 0.00 0.00 57 1012.3
20260905194541 97 243 1.0 5.0 0.00 0.00 0.00 58 1012.6
20260905193046 98 238 0.0 5.0 0.00 0.00 0.00 56 1012.6
20260905191549 99 240 1.0 4.0 0.00 0.00 0.00 55 1013.0
20260905190100 99 141 1.0 4.0 0.00 0.00 0.00 47 1013.2
20260905184558 101 239 2.0 5.0 0.00 0.00 0.00 45 1013.3
20260905183047 100 112 1.0 4.0 0.00 0.00 0.00 46 1013.6
20260905181542 100 79 1.0 4.0 0.00 0.00 0.00 48 1013.8
20260905180055 98 108 0.0 6.0 0.00 0.00 0.00 48 1013.9
20260905174555 97 117 2.0 5.0 0.00 0.00 0.00 50 1014.4
20260905173114 97 116 1.0 4.0 0.00 0.00 0.00 51 1014.5
20260905171540 98 108 1.0 4.0 0.00 0.00 0.00 48 1014.8
20260905170045 98 91 0.0 3.0 0.00 0.00 0.00 52 1014.8
20260905164549 98 0 1.0 5.0 0.00 0.00 0.00 50 1015.1
20260905163050 99 120 1.0 4.0 0.00 0.00 0.00 50 1015.0
20260905161552 97 91 0.0 4.0 0.00 0.00 0.00 54 1015.2
20260905160047 96 148 2.0 5.0 0.00 0.00 0.00 54 1015.3
20260905154553 96 98 1.0 4.0 0.00 0.00 0.00 55 1015.3
20260905153046 95 142 2.0 4.0 0.00 0.00 0.00 58 1015.2
20260905151544 93 95 0.0 4.0 0.00 0.00 0.00 65 1015.0
20260905150043 92 128 1.0 4.0 0.00 0.00 0.00 65 1015.1
20260905144549 89 124 1.0 3.0 0.00 0.00 0.00 71 1015.3
20260905143046 88 96 1.0 3.0 0.00 0.00 0.00 72 1015.3
20260905141546 86 319 1.0 4.0 0.00 0.00 0.00 74 1015.4
20260905140050 85 123 1.0 4.0 0.00 0.00 0.00 77 1015.3
20260905134545 84 139 0.0 3.0 0.00 0.00 0.00 79 1015.5
20260905133042 82 128 0.0 3.0 0.00 0.00 0.00 82 1015.4
20260905131559 80 0 0.0 1.0 0.00 0.00 0.00 85 1015.3
20260905130045 79 129 0.0 1.0 0.00 0.00 0.00 87 1015.5
20260905124549 77 122 0.0 1.0 0.00 0.00 0.00 89 1015.6
20260905123053 76 158 0.0 0.0 0.00 0.00 0.00 91 1015.4
20260905121550 75 0 0.0 0.0 0.00 0.00 0.00 92 1015.6
20260905120050 75 0 0.0 1.0 0.00 0.00 0.00 93 1015.3
20260905114545 74 0 0.0 0.0 0.00 0.00 0.00 94 1015.2
20260905113041 74 0 0.0 0.0 0.00 0.00 0.00 94 1015.2
20260905111553 74 0 0.0 0.0 0.00 0.00 0.00 93 1015.1
20260905104540 74 0 0.0 0.0 0.00 0.00 0.00 93 1015.0
20260905103048 74 0 0.0 0.0 0.00 0.00 0.00 93 1015.0
20260905101552 74 0 0.0 0.0 0.00 0.00 0.00 93 1015.1
20260905100044 74 0 0.0 0.0 0.00 0.00 0.00 93 1015.0
20260905094543 74 0 0.0 0.0 0.00 0.00 0.00 92 1014.7
20260905093047 74 0 0.0 0.0 0.00 0.00 0.00 92 1014.9
20260905091547 74 0 0.0 0.0 0.00 0.00 0.00 91 1014.9
20260905090041 74 0 0.0 0.0 0.00 0.00 0.00 91 1014.9